Simultaneous Nadir Overpasses (SNOs) Predictions

Prediction of SNOs between AQUA and NOAA-19 Satellite Orbit:

Table of predicted SNOs for the next 14.0 days since TLE Epoch: 4/24/2020
Index Date (AQUA) Time (AQUA) Lat,Lon (AQUA) SZA (AQUA ) Date (NOAA-19) Time (NOAA-19) Lat,Lon (NOAA-19) SZA (NOAA-19 ) Distance(km) Time Diff (sec)
1 04/25/2020 01:20:26 79.86, 130.54 67.84 04/25/2020 01:19:49 79.83, 130.45 67.84 2.94 37
2 04/25/2020 02:09:52 -79.87, -61.92 112.16 04/25/2020 02:10:44 -79.87, -61.81 112.18 2.17 52
3 04/27/2020 06:54:08 -79.84,-132.75 112.92 04/27/2020 06:53:04 -79.84,-132.75 112.89 0.24 64
4 04/27/2020 07:43:36 79.86, 34.70 67.11 04/27/2020 07:44:08 79.85, 34.61 67.10 2.58 32
5 04/29/2020 13:17:18 -79.84, 131.42 113.62 04/29/2020 13:17:23 -79.84, 131.30 113.61 2.47 5
6 05/01/2020 18:51:02 79.85,-132.06 65.71 05/01/2020 18:50:47 79.82,-132.15 65.71 3.38 15
7 05/01/2020 19:40:28 -79.85, 35.57 114.30 05/01/2020 19:41:41 -79.87, 35.65 114.32 2.35 73
8 05/04/2020 00:24:44 -79.83, -35.33 114.98 05/04/2020 00:24:01 -79.83, -35.31 114.96 0.37 43
9 05/04/2020 01:14:11 79.83, 132.32 65.01 05/04/2020 01:15:05 79.86, 132.24 65.03 3.41 54
10 05/06/2020 05:58:27 79.81, 61.38 64.37 05/06/2020 05:57:25 79.82, 61.32 64.40 1.49 62
11 05/06/2020 06:47:54 -79.84,-131.22 115.60 05/06/2020 06:48:20 -79.83,-131.27 115.62 1.52 26




NCC Satellite Simultaneous Nadir Overpasses (SNOs) Prediction Service
